[[{"header":{"parameterUnit":"m.s-1","parameterCategory":1,"la1":30.2991,"la2":30.254,"lo1":-89.0895,"lo2":-89.0444,"dy":0.0017,"dx":0.0017,"nx":28,"ny":28,"refTime":"2024-05-03T03:00:00:Z","depth":0,"parameterNumber":2,"parameterNumberName":"U-component_of_WINDS"},"data":[0,0,0,0,0,0,0,0,0,0,0,0,0,0,0,0,0,0,0,0,0,0,0,0,0,0,0,0,0,0,0,0,0,0,0,0,0,0,0,0,0,0,0,0,0,0,0,0,0,0,0,0,0,0,0,0,0,0,-1.407,-1.407,0,-1.4091,-1.4092,-1.4092,-1.4093,-1.4093,-1.4092,-1.4092,-1.4115,-1.4115,-1.4116,0,0,0,0,0,0,0,0,0,0,0,0,0,-1.4031,-1.4032,-1.407,-1.407,-1.407,-1.4091,-1.4092,-1.4092,-1.4093,-1.4093,-1.4092,-1.4092,-1.4114,-1.4115,-1.4116,0,0,0,0,0,0,0,0,0,0,0,0,0,-1.405,-1.4032,-1.407,-1.4073,-1.4074,-1.4091,-1.4092,-1.4092,-1.4093,-1.4093,-1.4092,-1.4092,-1.4114,-1.4115,-1.4116,-1.4131,0,0,-1.412,-1.4121,0,0,0,0,0,0,0,0,-1.4049,-1.4051,-1.4073,-1.4073,-1.4074,-1.4089,-1.4086,-1.4105,-1.4093,-1.4086,-1.4092,-1.4092,-1.4106,-1.4108,-1.4113,-1.4132,-1.4133,-1.412,-1.4121,-1.4122,-1.4122,0,0,0,0,0,0,0,-1.4048,-1.405,-1.4078,-1.4073,-1.4074,-1.4074,-1.4077,-1.409,-1.4098,-1.4086,-1.4087,-1.4089,-1.4107,-1.4112,-1.4114,-1.4134,-1.412,-1.4121,-1.4122,-1.4123,-1.4167,-1.4168,0,0,0,0,0,0,-1.4045,-1.4049,-1.4078,-1.4079,-1.406,-1.4075,-1.4078,-1.4085,-1.4098,-1.4099,-1.4089,-1.4089,-1.411,-1.4112,-1.4114,-1.4133,-1.4122,-1.4123,-1.4123,-1.4167,-1.4168,-1.4168,0,0,0,0,0,0,-1.4045,-1.4048,-1.4077,-1.4064,-1.4068,-1.4077,-1.4084,-1.4085,-1.409,-1.41,-1.4102,-1.4093,-1.411,-1.4113,-1.4127,-1.4134,-1.4123,-1.4124,-1.4166,-1.4167,-1.4168,-1.417,0,0,0,0,0,0,-1.4043,-1.4048,-1.4053,-1.4064,-1.4069,-1.4089,-1.4084,-1.4086,-1.4092,-1.4092,-1.4104,-1.4105,-1.411,-1.4125,-1.4129,-1.4135,-1.4125,-1.4166,-1.4167,-1.4168,-1.4169,-1.4171,-1.4172,0,0,0,0,0,-1.4042,-1.4053,-1.4053,-1.4057,-1.4075,-1.4089,-1.4092,-1.4096,-1.4093,-1.4099,-1.4105,-1.4105,-1.4133,-1.4127,-1.413,-1.4138,-1.4166,-1.4167,-1.4168,-1.4169,-1.4171,-1.4172,0,0,0,0,0,0,-1.4042,-1.4054,-1.4055,-1.407,-1.4078,-1.4089,-1.4097,-1.4098,-1.4108,-1.4107,-1.4112,-1.4115,-1.413,-1.4135,-1.4129,-1.4153,-1.4149,-1.4151,-1.4149,-1.415,-1.4152,-1.4149,-1.4126,0,0,0,0,0,-1.4044,-1.4053,-1.4064,-1.4076,-1.408,-1.4088,-1.4094,-1.4097,-1.4106,-1.411,-1.4117,-1.4127,-1.4138,-1.4144,-1.4155,-1.4171,-1.4174,-1.4178,-1.4179,-1.418,-1.4181,-1.419,-1.4192,-1.4171,-1.4171,-1.4171,0,0,-1.4047,-1.4055,-1.4061,-1.4076,-1.4083,-1.4094,-1.4091,-1.4102,-1.411,-1.4112,-1.4126,-1.4132,-1.4143,-1.4158,-1.4165,-1.4163,-1.4188,-1.4181,-1.4182,-1.4182,-1.4191,-1.4193,-1.4195,-1.4172,-1.4172,-1.4172,0,0,-1.4058,-1.4066,-1.4076,-1.4084,-1.4095,-1.41,-1.4103,-1.4114,-1.4118,-1.4132,-1.4134,-1.4144,-1.4162,-1.417,-1.4177,-1.4193,-1.4193,-1.4196,-1.4202,-1.4211,-1.4212,-1.4214,-1.4219,-1.4221,-1.4197,-1.4197,-1.4197,0,-1.4061,-1.4076,-1.4082,-1.4093,-1.41,-1.4102,-1.4113,-1.4121,-1.4135,-1.4139,-1.4137,-1.4161,-1.4168,-1.4186,-1.419,-1.4195,-1.4199,-1.4194,-1.4212,-1.4213,-1.4215,-1.422,-1.4222,-1.4198,-1.4198,-1.4198,-1.4198,0,-1.4079,-1.409,-1.4098,-1.4111,-1.4119,-1.413,-1.4137,-1.4145,-1.4148,-1.4153,-1.4168,-1.4178,-1.419,-1.4195,-1.4198,-1.4213,-1.4212,-1.4211,-1.4206,-1.4217,-1.4222,-1.4224,-1.4198,-1.4198,-1.4198,-1.4198,0,0,-1.409,-1.4107,-1.4109,-1.4116,-1.4129,-1.4137,-1.4149,-1.4161,-1.4168,-1.4178,-1.4188,-1.4204,-1.4204,-1.4211,-1.4215,-1.4223,-1.4235,-1.4221,-1.4221,-1.4223,-1.4253,-1.4253,-1.4255,-1.4236,-1.4236,-1.4237,-1.4252,0,-1.4102,-1.4122,-1.4128,-1.4145,-1.4156,-1.4159,-1.4169,-1.4179,-1.4185,-1.4195,-1.4202,-1.4213,-1.4212,-1.4216,-1.4224,-1.4232,-1.4241,-1.4231,-1.4245,-1.4246,-1.4241,-1.4257,-1.4257,-1.4271,-1.4254,-1.4254,-1.4254,0,-1.4119,-1.4129,-1.4147,-1.416,-1.4164,-1.4173,-1.4185,-1.4195,-1.4206,-1.421,-1.4219,-1.4222,-1.4235,-1.4231,-1.4249,-1.4242,-1.4249,-1.4254,-1.4254,-1.4255,-1.425,-1.4258,-1.4275,-1.4277,-1.4257,-1.4257,-1.4257,0,-1.4124,-1.4143,-1.4156,-1.4162,-1.4176,-1.4183,-1.4189,-1.42,-1.4207,-1.4218,-1.4223,-1.4236,-1.4243,-1.4253,-1.426,-1.4256,-1.4277,-1.4274,-1.4281,-1.4281,-1.4284,-1.4284,-1.4302,-1.429,-1.429,-1.429,-1.429,0,-1.4137,-1.4148,-1.4159,-1.4167,-1.4179,-1.4186,-1.4199,-1.4206,-1.4216,-1.4226,-1.423,-1.4239,-1.4248,-1.4259,-1.4265,-1.4279,-1.4282,-1.4286,-1.4287,-1.4285,-1.4285,-1.4289,-1.4288,-1.429,-1.429,-1.429,-1.429,0,-1.4144,-1.4152,-1.4167,-1.418,-1.4183,-1.4192,-1.4203,-1.4212,-1.4219,-1.4231,-1.4235,-1.4245,-1.4258,-1.4267,-1.4283,-1.4287,-1.4303,-1.4304,-1.4299,-1.4299,-1.4306,-1.4305,-1.4326,-1.433,-1.4316,-1.4316,-1.4316,0,-1.4151,-1.416,-1.4174,-1.4181,-1.4187,-1.4198,-1.4206,-1.4214,-1.4221,-1.4235,-1.4242,-1.4256,-1.4267,-1.4287,-1.4297,-1.431,-1.4311,-1.4318,-1.4313,-1.4311,-1.4311,-1.431,-1.4311,-1.4318,-1.4318,-1.4319,-1.4319,0,-1.4163,-1.4166,-1.4177,-1.4189,-1.4198,-1.4208,-1.4219,-1.4224,-1.4234,-1.4243,-1.4256,-1.4264,-1.4282,-1.4295,-1.4309,-1.4317,-1.4319,-1.432,-1.4323,-1.432,-1.4316,-1.4318,-1.43,-1.432,-1.4319,-1.4319,-1.4319,-1.4319,-1.417,-1.4178,-1.4189,-1.4201,-1.4209,-1.4219,-1.4228,-1.4236,-1.4247,-1.4261,-1.4265,-1.4279,-1.4291,-1.4311,-1.4318,-1.433,-1.4329,-1.4332,-1.4333,-1.4333,-1.4333,-1.4315,-1.4333,-1.4332,-1.4332,-1.4332,-1.4332,0,-1.4181,-1.4189,-1.42,-1.4214,-1.4224,-1.4226,-1.4237,-1.4245,-1.4257,-1.4268,-1.4279,-1.4295,-1.4308,-1.4319,-1.4333,-1.434,-1.4342,-1.4343,-1.4342,-1.4344,-1.4333,-1.433,-1.4342,-1.4342,-1.4342,-1.4342,-1.4342,-1.4342,-1.4188,-1.4202,-1.4207,-1.4225,-1.4233,-1.4246,-1.4252,-1.4262,-1.427,-1.4287,-1.4298,-1.4306,-1.4317,-1.4332,-1.4344,-1.4347,-1.4352,-1.4353,-1.4356,-1.4346,-1.4345,-1.4344,-1.434,-1.4354,-1.4354,-1.4366,-1.4366,-1.4366]},{"header":{"parameterUnit":"m.s-1","parameterCategory":1,"la1":30.2991,"la2":30.254,"lo1":-89.0895,"lo2":-89.0444,"dy":0.0017,"dx":0.0017,"nx":28,"ny":28,"refTime":"2024-05-03T03:00:00:Z","depth":0,"parameterNumber":3,"parameterNumberName":"V-component_of_WINDS"},"data":[0,0,0,0,0,0,0,0,0,0,0,0,0,0,0,0,0,0,0,0,0,0,0,0,0,0,0,0,0,0,0,0,0,0,0,0,0,0,0,0,0,0,0,0,0,0,0,0,0,0,0,0,0,0,0,0,0,0,3.4626,3.4626,0,3.4585,3.4584,3.4584,3.4496,3.4495,3.4493,3.4491,3.4451,3.4452,3.4452,0,0,0,0,0,0,0,0,0,0,0,0,0,3.4633,3.4634,3.4627,3.4626,3.4625,3.4585,3.4584,3.4584,3.4497,3.4495,3.4492,3.449,3.4451,3.4452,3.4452,0,0,0,0,0,0,0,0,0,0,0,0,0,3.4615,3.4634,3.4627,3.4577,3.4572,3.4585,3.4584,3.4584,3.4497,3.4495,3.4492,3.4489,3.4451,3.4452,3.4452,3.4511,0,0,3.4455,3.4455,0,0,0,0,0,0,0,0,3.4616,3.4615,3.4585,3.458,3.4575,3.4543,3.4572,3.4559,3.4498,3.4526,3.4491,3.4488,3.4484,3.4482,3.448,3.4509,3.4507,3.4455,3.4456,3.4456,3.4456,0,0,0,0,0,0,0,3.4618,3.4616,3.461,3.4585,3.4579,3.4558,3.4552,3.4569,3.452,3.4523,3.4517,3.4513,3.4481,3.4479,3.4478,3.4507,3.4455,3.4456,3.4456,3.4457,3.4582,3.4585,0,0,0,0,0,0,3.4626,3.4618,3.4611,3.4609,3.4589,3.456,3.4554,3.4556,3.452,3.4512,3.4515,3.4509,3.4479,3.4478,3.4477,3.4543,3.4456,3.4457,3.4457,3.458,3.4583,3.4586,0,0,0,0,0,0,3.4626,3.4626,3.4613,3.4612,3.4608,3.4563,3.4566,3.4557,3.4555,3.4514,3.4505,3.4522,3.4477,3.4476,3.4503,3.4541,3.4457,3.4458,3.4576,3.4581,3.4585,3.4677,0,0,0,0,0,0,3.4627,3.4627,3.4648,3.4613,3.4609,3.464,3.4568,3.4558,3.4557,3.4548,3.4518,3.4511,3.4475,3.4502,3.4504,3.454,3.4459,3.4573,3.4578,3.4583,3.467,3.4684,3.4695,0,0,0,0,0,3.4627,3.4676,3.4649,3.4649,3.4634,3.4642,3.464,3.4596,3.456,3.4581,3.4555,3.4512,3.4536,3.4506,3.4507,3.4544,3.457,3.4577,3.4583,3.4664,3.4681,3.4695,0,0,0,0,0,0,3.4717,3.467,3.464,3.4678,3.4665,3.4627,3.4652,3.4615,3.4612,3.4604,3.4552,3.4546,3.4581,3.4565,3.4532,3.4599,3.4546,3.4553,3.4608,3.4623,3.4636,3.4639,3.4459,0,0,0,0,0,3.4741,3.475,3.4709,3.4747,3.4742,3.4699,3.47,3.4668,3.4652,3.4646,3.4622,3.4609,3.4613,3.4617,3.4619,3.4668,3.466,3.4694,3.4706,3.4717,3.4723,3.4749,3.4763,3.4607,3.4607,3.4607,0,0,3.4791,3.4767,3.4776,3.4764,3.475,3.4762,3.4694,3.4709,3.4718,3.4649,3.4673,3.4655,3.4637,3.4675,3.4691,3.4663,3.4765,3.4725,3.4734,3.4734,3.4757,3.4771,3.4785,3.4611,3.461,3.461,0,0,3.4888,3.487,3.49,3.4887,3.4866,3.4837,3.4845,3.4812,3.4798,3.4821,3.477,3.478,3.4789,3.4778,3.4774,3.4868,3.4829,3.4871,3.4936,3.4961,3.4973,3.4984,3.5018,3.5031,3.4877,3.4878,3.4878,0,3.4953,3.4968,3.492,3.4939,3.4936,3.4873,3.4904,3.4894,3.4875,3.4875,3.4844,3.4854,3.4838,3.4873,3.4896,3.4895,3.4902,3.4874,3.4975,3.4985,3.4995,3.5027,3.504,3.4883,3.4882,3.4882,3.4881,0,3.5049,3.5061,3.5088,3.507,3.507,3.5095,3.5052,3.5058,3.5026,3.5001,3.5027,3.5005,3.5001,3.5007,3.4977,3.5039,3.5022,3.4985,3.493,3.5016,3.5045,3.5057,3.489,3.4888,3.4887,3.4885,0,0,3.5201,3.5158,3.5168,3.516,3.5132,3.5141,3.5163,3.5159,3.5166,3.5155,3.5173,3.5183,3.5147,3.5143,3.5111,3.5133,3.521,3.5092,3.5091,3.5115,3.5278,3.5307,3.5322,3.5184,3.5186,3.5188,3.528,0,3.5292,3.5327,3.5285,3.5329,3.5339,3.5281,3.53,3.5286,3.5264,3.527,3.5245,3.5253,3.5205,3.5202,3.5222,3.5197,3.5242,3.5189,3.5201,3.5202,3.5208,3.5337,3.5368,3.5456,3.5291,3.5293,3.5294,0,3.5403,3.5397,3.5442,3.5412,3.5415,3.5433,3.5427,3.5433,3.5417,3.5399,3.5395,3.5356,3.5377,3.5324,3.5353,3.5318,3.5321,3.5309,3.5312,3.5311,3.5253,3.5341,3.5482,3.5496,3.5312,3.531,3.5309,0,3.551,3.5513,3.5541,3.5535,3.5501,3.5516,3.5503,3.5483,3.5484,3.5479,3.5479,3.5477,3.5476,3.5475,3.5438,3.5403,3.5472,3.5416,3.5458,3.5459,3.5475,3.5475,3.562,3.5477,3.5477,3.5476,3.5476,0,3.5616,3.5646,3.5588,3.5605,3.5638,3.559,3.5623,3.5604,3.5588,3.5601,3.555,3.5564,3.5513,3.5521,3.5492,3.5521,3.5521,3.5508,3.55,3.5512,3.5514,3.5513,3.5507,3.548,3.5479,3.5478,3.5478,0,3.5741,3.5703,3.5729,3.5695,3.5687,3.5713,3.5684,3.5699,3.5673,3.569,3.5691,3.5652,3.5659,3.5621,3.5622,3.5603,3.5647,3.5628,3.5652,3.5646,3.5691,3.5688,3.5841,3.5859,3.5704,3.5706,3.5707,0,3.5811,3.5833,3.5801,3.5805,3.5795,3.5803,3.5803,3.5758,3.576,3.5743,3.5761,3.5764,3.5764,3.5779,3.5751,3.5752,3.5733,3.5787,3.5733,3.5745,3.5734,3.5734,3.5736,3.5798,3.58,3.5802,3.5803,0,3.594,3.5921,3.5922,3.5919,3.592,3.5915,3.5907,3.5914,3.5864,3.587,3.5877,3.5877,3.5878,3.5882,3.5878,3.5865,3.5827,3.582,3.583,3.5843,3.5857,3.5851,3.5683,3.5817,3.5815,3.5814,3.5813,3.5813,3.604,3.6057,3.6037,3.6041,3.603,3.6023,3.6036,3.6012,3.6016,3.6013,3.5986,3.5998,3.5982,3.5971,3.5962,3.5972,3.5947,3.5961,3.5965,3.5969,3.5977,3.5855,3.5971,3.597,3.597,3.597,3.5969,0,3.6167,3.6151,3.6155,3.6145,3.6149,3.6111,3.61,3.6106,3.6117,3.6105,3.6106,3.6115,3.6119,3.6091,3.6092,3.6105,3.6087,3.6107,3.6105,3.6103,3.5999,3.5991,3.6121,3.6121,3.6121,3.6121,3.6121,3.6121,3.6233,3.626,3.6238,3.6259,3.6243,3.6254,3.6251,3.6245,3.6235,3.6247,3.625,3.6231,3.6213,3.6212,3.6215,3.6207,3.621,3.6235,3.6221,3.6125,3.611,3.6096,3.6088,3.6236,3.6236,3.6324,3.6325,3.6326]}]]